KINEIS-1E

Last updated on Mon Dec 15 2025 00:02:49 GMT+0000 (Coordinated Universal Time)

1 60083U 24114E 25348.31312572 .00001381 00000+0 18885-3 0 9990 2 60083 97.9991 8.1902 0001543 49.7478 310.3868 14.80162743 80031
UTC large
Height (km)
Speed (km/s)
/
Latitude / Longitude
Inclination (degrees)
Orbital Period (minutes)
Azimuth
Elevation
Range (km)
Doppler Factor

Next 0 passes for location: London (51.5072 / 0.1276)

Sorry there are no passes over London.